If you wish to contribute or participate in the discussions about articles you are invited to join SKYbrary as a registered user

 Actions

Arequipa/Rodríguez Ballón International

From SKYbrary Wiki

SPQU
Airport
ICAO: SPQU – IATA: AQP
Summary
Name Arequipa/Rodríguez Ballón International
Region South America and Caribbean
Territory Peru PE.gif
Location Ro Seco, Arequipa
Serving Arequipa
Elevation 2,560.32 m8,400 ft2,560.32 m
Coordinates -16° 20' 25.0008", -71° 34' 22.0008"
Runways
Designator Length Width Surface ROPS
9/27 2980 m9,776.903 ft 45 m147.638 ft ASP /


METAR
Observation SPQU 191600Z 25007KT 210V310 9999 FEW130 22/M05 Q1030 NOSIG RMK PP000
Station Arequipa
Date/Time 19 June 2018 16:00:00
Wind direction 250°
Wind speed 07 kts
Lowest cloud amount few clouds
Temperature 22°C
Dew point
Humidity 15%
QNH 1030 hPa
Weather condition n/a

Rodríguez Ballón International Airport is an airport serving Peru's second largest city, Arequipa. This airport and Cusco's Alejandro Velasco Astete International Airport are the main air hubs in southern Peru.

Climatology

Cool Desert climate (Köppen climate classification BWk).

Maps

Terrain

Loading map...

Airport Layout

Loading map...


Accidents & Serious Incidents at or in vicinity of SPQU

None on SKYbrary